Location: Lady Lake Astronomical Observatory
(47.6963°N, 53.2446°W)
Time: 12:11:39
(UTC-02:-30)

ISS - Visible Passes

Search period start: 16 October 2019 00:00
Search period end: 26 October 2019 00:00
Orbit: 411 x 421 km, 51.6° (Epoch: 16 October)

Date Brightness Start Highest point End Pass type
(mag) Time Alt. Az. Time Alt. Az. Time Alt. Az.
22 Oct -0.5 07:00:28 10° SSE 07:01:57 12° SE 07:03:27 10° ESE visible
24 Oct -1.6 06:58:16 10° SSW 07:01:12 28° SE 07:04:08 10° E visible
25 Oct -1.1 06:10:24 10° S 06:12:48 18° SE 06:15:11 10° E visible
